sat.trackr.live / text

‹ back to catalog

HULIANWANG DIGUI-168

NORAD 68660 · 2026-076E

PAYLOAD ACTIVE UNKNOWN

§ Identity

Operator
Country
PRC
Launch date
2026-04-08
Launch site
TAISC
Launch vehicle
Mass (kg)
RCS (m²)

External: N2YO · Heavens-Above · Gunter

§ Orbital elements

Epoch: 2026-09-20T03:16:14.795904Z

Period
108.73 min
Inclination
86.5030°
Eccentricity
0.0001356
Mean motion
13.24407447 rev/d
Perigee alt
1,166.9 km
Apogee alt
1,169.0 km
Semi-major
7,546.1 km
B*
-9.0917e-6
RAAN
11.7952°
Arg perigee
113.8988°
Mean anomaly
246.2288°
Rev number
2,193

§ Raw data

HULIANWANG DIGUI-1681 68660U 26076E   26263.13628236  .00000011  00000+0 -90917-5 0  99902 68660  86.5030  11.7952 0001356 113.8988 246.2288 13.24407447 21931

JSON: /api/v1/satellites/68660 · /tle

For live sub-satellite position, see the globe view (requires WebGL).

§ Visibility from observer

Set your observer location to see the next 7 days of passes ≥ 10°. The values pass through the URL so the page stays shareable.

No JS? Fill the form by hand. The geolocation button needs JavaScript.